Date String (YYYY-MM-DD hh:mm:ss) UTC,Instrument flags,Ambient pressure (hPa),Sample flow (lpm),Bypass flow (lpm),Sample temperature (°C),Ambient temperature (°C),ASC tube jacket temperature (°C),LED temperature (°C),Box temperature (°C),Sample RH (%),Span deviation,Mass concentration (μg/m³),Mass concentration (μg/m³),Mass concentration (μg/m³)
DateTimeUTC,F1_M11,P_M11,Q1_M11,Q2_M11,T1_M11,T2_M11,T3_M11,T4_M11,T5_M11,U1_M11,ZSPAN_M11,X0_M11,X2_M11,X1_M11
2021-09-05 08:00:00,,0830.4,5.00,0.00,29.9,29.0,00.0,39.0,31.7,15.2,0001.5,0021.66,0015.10,0014.38
2021-09-05 08:01:00,,0830.4,5.00,0.00,30.0,29.0,00.0,39.0,31.7,15.3,0001.5,0022.08,0015.00,0014.29
2021-09-05 08:02:00,,0830.4,4.99,0.00,30.0,29.0,00.0,39.0,31.7,14.9,0001.5,0021.60,0014.88,0014.19
2021-09-05 08:03:00,,0830.4,5.01,0.00,30.0,29.0,00.0,39.0,31.7,15.3,0001.3,0020.92,0014.81,0014.10
2021-09-05 08:04:00,,0830.3,5.00,0.00,30.0,29.0,00.0,39.0,31.8,15.1,0001.1,0021.26,0014.77,0014.04
2021-09-05 08:05:00,,0830.3,5.01,0.00,30.0,29.0,00.0,39.0,31.8,14.8,0001.2,0021.22,0014.65,0013.96
2021-09-05 08:06:00,,0830.4,4.98,0.00,30.0,29.0,00.0,39.1,31.7,14.7,0001.3,0021.28,0014.59,0013.89
2021-09-05 08:07:00,,0830.3,5.00,0.00,30.0,28.7,00.0,39.1,31.7,14.6,0001.6,0021.17,0014.55,0013.83
2021-09-05 08:08:00,,0830.5,5.00,0.00,29.9,26.7,00.0,39.0,31.2,14.6,0001.7,0020.70,0014.45,0013.74
2021-09-05 08:09:00,,0830.4,5.00,0.00,29.8,25.9,00.0,39.0,31.0,14.7,0001.8,0020.57,0014.42,0013.68
2021-09-05 08:10:00,,0830.5,5.00,0.00,29.6,26.2,00.0,39.0,31.0,14.9,0001.9,0021.03,0014.38,0013.63
2021-09-05 08:11:00,,0830.5,5.01,0.00,29.6,26.6,00.0,38.9,31.0,15.1,0001.9,0020.68,0014.28,0013.57
2021-09-05 08:12:00,,0830.4,5.00,0.00,29.6,27.1,00.0,38.9,31.1,15.4,0002.0,0020.06,0014.19,0013.52
2021-09-05 08:13:00,,0830.4,5.00,0.00,29.5,27.4,00.0,38.8,31.1,15.3,0002.2,0019.73,0014.17,0013.49
2021-09-05 08:14:00,,0830.5,5.00,0.00,29.5,27.7,00.0,38.8,31.1,15.3,0002.3,0019.81,0014.17,0013.46
2021-09-05 08:15:00,,0830.4,5.01,0.00,29.6,27.9,00.0,38.8,31.2,15.3,0002.4,0019.60,0014.10,0013.39
2021-09-05 08:16:00,,0830.4,4.99,0.00,29.6,28.0,00.0,38.8,31.2,15.0,0002.7,0019.50,0014.04,0013.36
2021-09-05 08:17:00,,0830.4,5.00,0.00,29.6,28.1,00.0,38.8,31.3,14.7,0002.9,0018.89,0013.98,0013.33
2021-09-05 08:18:00,,0830.4,4.99,0.00,29.6,28.2,00.0,38.8,31.3,14.6,0002.7,0018.80,0013.91,0013.29
2021-09-05 08:19:00,,0830.4,5.01,0.00,29.6,28.3,00.0,38.8,31.3,14.5,0002.6,0018.60,0013.86,0013.28
2021-09-05 08:20:00,,0830.4,5.01,0.00,29.6,28.4,00.0,38.8,31.3,14.5,0002.6,0018.56,0013.79,0013.25
2021-09-05 08:21:00,,0830.3,5.01,0.00,29.7,28.5,00.0,38.8,31.4,14.6,0002.5,0018.45,0013.74,0013.22
2021-09-05 08:22:00,,0830.3,4.99,0.00,29.7,28.5,00.0,38.8,31.4,14.6,0002.4,0018.53,0013.78,0013.25
2021-09-05 08:23:00,,0830.3,5.00,0.00,29.7,28.6,00.0,38.8,31.4,14.4,0002.2,0018.61,0013.79,0013.23
2021-09-05 08:24:00,,0830.3,4.99,0.00,29.7,28.6,00.0,38.8,31.4,14.5,0002.0,0018.52,0013.73,0013.19
2021-09-05 08:25:00,,0830.3,5.02,0.00,29.7,28.6,00.0,38.8,31.4,14.5,0002.2,0018.42,0013.67,0013.17
2021-09-05 08:26:00,,0830.3,4.99,0.00,29.7,28.6,00.0,38.8,31.5,14.5,0002.4,0018.39,0013.65,0013.16
2021-09-05 08:27:00,,0830.3,5.00,0.00,29.8,28.6,00.0,38.8,31.5,14.4,0002.3,0017.99,0013.62,0013.14
2021-09-05 08:28:00,,0830.3,4.99,0.00,29.8,28.7,00.0,38.8,31.5,14.3,0002.0,0017.98,0013.59,0013.12
2021-09-05 08:29:00,,0830.2,5.01,0.00,29.8,28.7,00.0,38.8,31.5,14.2,0001.8,0018.02,0013.58,0013.10
2021-09-05 08:30:00,,0830.2,4.99,0.00,29.8,28.7,00.0,38.9,31.5,14.2,0001.8,0018.32,0013.61,0013.08
2021-09-05 08:31:00,,0830.2,4.99,0.00,29.8,28.7,00.0,38.9,31.5,14.1,0001.8,0018.53,0013.61,0013.04
2021-09-05 08:32:00,,0830.2,5.00,0.00,29.8,28.8,00.0,38.9,31.6,14.1,0002.0,0018.06,0013.62,0013.02
2021-09-05 08:33:00,,0830.2,4.99,0.00,29.9,28.8,00.0,38.9,31.6,14.1,0002.1,0018.25,0013.58,0012.97
2021-09-05 08:34:00,,0830.3,5.01,0.00,29.9,28.8,00.0,38.9,31.6,14.0,0002.1,0018.47,0013.62,0012.98
2021-09-05 08:35:00,,0830.2,4.99,0.00,29.9,28.8,00.0,38.9,31.6,13.9,0002.3,0018.97,0013.70,0013.03
2021-09-05 08:36:00,,0830.2,5.00,0.00,29.9,28.8,00.0,38.9,31.6,13.7,0002.3,0019.11,0013.73,0013.04
2021-09-05 08:37:00,,0830.3,5.01,0.00,29.9,28.8,00.0,38.9,31.6,13.6,0002.1,0019.47,0013.79,0013.07
2021-09-05 08:38:00,,0830.3,5.01,0.00,29.9,28.8,00.0,39.0,31.6,13.5,0002.0,0019.29,0013.81,0013.09
2021-09-05 08:39:00,,0830.2,4.99,0.00,29.9,28.8,00.0,39.0,31.6,13.4,0002.2,0019.47,0013.88,0013.11
2021-09-05 08:40:00,,0830.2,5.01,0.00,29.9,28.8,00.0,39.0,31.6,13.3,0002.3,0019.61,0013.93,0013.12
2021-09-05 08:41:00,,0830.3,4.99,0.00,29.9,28.8,00.0,39.0,31.6,13.3,0002.4,0019.54,0013.93,0013.14
2021-09-05 08:42:00,,0830.3,4.99,0.00,30.0,28.8,00.0,39.0,31.7,13.2,0002.3,0020.07,0013.94,0013.15
2021-09-05 08:43:00,,0830.2,5.00,0.00,30.0,28.8,00.0,39.0,31.7,13.1,0002.1,0020.79,0013.94,0013.15
2021-09-05 08:44:00,,0830.3,5.01,0.00,30.0,28.8,00.0,39.0,31.7,13.1,0002.0,0020.90,0013.94,0013.16
2021-09-05 08:45:00,,0830.2,4.99,0.00,30.0,28.9,00.0,39.0,31.7,13.0,0002.0,0020.72,0013.93,0013.16
2021-09-05 08:46:00,,0830.2,5.00,0.00,30.0,28.9,00.0,39.1,31.7,13.0,0001.7,0020.36,0013.84,0013.12
2021-09-05 08:47:00,,0830.2,5.00,0.00,30.0,28.9,00.0,39.1,31.7,13.0,0001.5,0020.37,0013.79,0013.10
2021-09-05 08:48:00,,0830.3,5.00,0.00,30.0,28.9,00.0,39.1,31.7,13.1,0001.5,0019.96,0013.72,0013.06
2021-09-05 08:49:00,,0830.3,5.00,0.00,30.0,28.9,00.0,39.1,31.7,13.2,0001.6,0019.85,0013.70,0013.04
2021-09-05 08:50:00,,0830.3,5.00,0.00,30.0,28.9,00.0,39.1,31.7,13.2,0001.3,0019.74,0013.64,0012.99
2021-09-05 08:51:00,,0830.3,5.01,0.00,30.0,28.9,00.0,39.1,31.8,13.0,0001.5,0019.62,0013.59,0012.96
2021-09-05 08:52:00,,0830.4,4.99,0.00,30.1,29.0,00.0,39.1,31.8,12.9,0001.8,0019.51,0013.56,0012.94
2021-09-05 08:53:00,,0830.3,5.00,0.00,30.1,29.0,00.0,39.1,31.8,12.9,0002.0,0018.71,0013.58,0012.96
2021-09-05 08:54:00,,0830.3,5.00,0.00,30.1,29.0,00.0,39.1,31.7,12.9,0002.1,0017.93,0013.57,0012.97
2021-09-05 08:55:00,,0830.3,5.00,0.00,30.1,29.0,00.0,39.2,31.8,12.8,0002.3,0017.58,0013.56,0012.97
2021-09-05 08:56:00,,0830.3,5.02,0.00,30.1,29.0,00.0,39.2,31.8,12.7,0002.4,0018.05,0013.55,0012.95
2021-09-05 08:57:00,,0830.3,5.00,0.00,30.1,29.0,00.0,39.2,31.8,12.6,0002.7,0018.47,0013.56,0012.94
2021-09-05 08:58:00,,0830.3,4.99,0.00,30.1,29.0,00.0,39.2,31.8,12.6,0003.0,0018.31,0013.53,0012.89
2021-09-05 08:59:00,,0830.2,5.02,0.00,30.1,29.0,00.0,39.2,31.8,12.5,0002.9,0018.37,0013.49,0012.84
